PBO Station Position Time Series. Reference Frame : NAM14
Format Version,1.1.1
4-character ID,CN58
Station name,Sombrero_AIA2022
Begin Date, 2022-04-10
End Date, 2023-06-26
Release Date, 2023-06-27
Reference position, 18.5865643892 North Latitude, -63.4265199359 East Longitude, -35.19952 meters elevation,
Date, North (mm), East (mm), Vertical (mm), North Std. Deviation (mm), East Std. Deviation (mm),              Vertical Std. Deviation (mm), Quality,
2022-04-10,0.00, 0.00, 0.00, 3.31, 3.72, 11.04, suppf,
2022-04-11,-1.65, -2.96, 1.58, 3.38, 3.82, 11.29, suppf,
2022-04-12,-2.28, -2.86, 11.86, 3.25, 3.66, 11.08, suppf,
2022-04-13,-0.90, -0.67, -7.53, 3.26, 3.69, 11.34, suppf,
2022-04-14,-0.66, -0.24, 4.93, 3.37, 3.83, 11.57, suppf,
2022-04-15,-3.42, 0.18, 7.37, 3.41, 3.84, 11.72, suppf,
2022-04-16,-2.44, -3.00, 3.62, 3.42, 3.82, 11.58, suppf,
2022-04-17,-2.08, -1.38, 11.10, 3.28, 3.66, 11.02, suppf,
2022-04-18,-1.14, -1.47, 7.23, 3.29, 3.71, 11.53, suppf,
2022-04-19,-2.66, -1.82, -4.62, 3.22, 3.66, 10.89, suppf,
2022-04-20,-0.36, -1.71, -5.14, 3.40, 3.82, 11.29, suppf,
2022-04-21,-2.08, -3.17, -7.92, 3.43, 3.87, 11.53, suppf,
2022-04-22,-2.48, -6.50, -1.65, 3.40, 3.89, 11.56, suppf,
2022-04-23,-2.72, -3.91, 1.59, 3.37, 3.76, 11.22, suppf,
2022-04-24,-3.25, -3.53, -1.73, 3.31, 3.73, 11.19, suppf,
2022-04-25,-1.13, -1.22, 2.00, 3.23, 3.67, 10.90, suppf,
2022-04-26,-1.71, -4.76, -8.06, 3.61, 4.01, 11.40, suppf,
2022-04-27,-0.88, -1.37, -6.54, 3.39, 3.83, 11.19, suppf,
2022-04-28,-1.93, -3.95, 4.24, 3.48, 3.97, 11.75, suppf,
2022-04-29,-2.81, -3.51, 6.67, 4.44, 4.76, 12.71, suppf,
2022-04-30,-1.51, -3.21, 9.42, 3.35, 3.81, 11.50, suppf,
2022-05-01,-2.06, -0.96, -4.13, 3.34, 3.85, 11.57, suppf,
2022-05-02,-1.72, -1.57, -12.32, 3.36, 3.86, 11.21, suppf,
2022-05-03,-2.93, -2.51, 11.14, 3.47, 3.93, 11.86, suppf,
2022-05-04,-1.03, -2.23, -1.83, 3.45, 3.89, 11.67, suppf,
2022-05-05,-3.48, -3.96, -4.31, 3.31, 3.76, 11.31, suppf,
2022-05-06,-0.89, -3.20, -3.72, 3.27, 3.69, 10.90, suppf,
2022-05-07,-2.38, -1.02, -9.43, 3.22, 3.68, 10.99, suppf,
2022-05-08,-0.33, -0.94, -4.88, 3.25, 3.69, 11.13, suppf,
2022-05-09,-0.66, -2.01, -7.93, 3.22, 3.66, 10.80, suppf,
2022-05-10,-0.96, -1.83, -0.74, 3.27, 3.70, 11.21, suppf,
2022-05-11,-1.20, -2.15, 0.67, 3.33, 3.80, 11.55, suppf,
2022-05-12,-3.92, -3.65, -7.30, 3.39, 3.86, 12.09, suppf,
2022-05-13,-1.05, -1.61, -1.14, 3.33, 3.76, 11.65, suppf,
2022-05-14,-1.79, -1.05, -10.06, 3.26, 3.68, 10.98, suppf,
2022-05-15,-1.41, -4.51, -6.14, 3.26, 3.68, 10.95, suppf,
2022-05-16,-1.81, -3.43, -13.68, 3.29, 3.67, 11.03, suppf,
2022-05-17,-1.58, -3.40, -8.02, 3.23, 3.67, 10.94, suppf,
2022-05-18,-2.94, -2.47, -1.97, 3.21, 3.63, 10.67, suppf,
2022-05-19,-2.62, -4.41, -0.93, 3.34, 3.78, 11.48, suppf,
2022-05-20,-0.47, -5.16, 2.29, 3.40, 3.83, 11.45, suppf,
2022-05-21,-1.42, -4.40, -9.21, 3.29, 3.71, 11.18, suppf,
2022-05-22,-3.72, -3.12, -1.14, 1.71, 1.93, 8.91, suppf,
2022-05-23,-3.46, -2.36, -1.82, 1.68, 1.88, 8.65, suppf,
2022-05-24,-2.89, -1.92, -11.00, 1.70, 1.88, 8.78, suppf,
2022-05-25,-2.03, -1.70, -13.23, 1.70, 1.91, 8.90, suppf,
2022-05-26,-0.73, -2.44, -6.02, 1.71, 1.88, 8.84, suppf,
2022-05-27,-3.05, -2.42, -1.98, 1.70, 1.89, 8.82, suppf,
2022-05-28,-3.42, -4.37, 1.02, 1.69, 1.86, 8.78, suppf,
2022-05-29,-2.93, -4.05, 0.83, 1.75, 1.93, 9.23, suppf,
2022-05-30,-3.20, -2.94, 2.26, 1.75, 1.90, 8.80, suppf,
2022-05-31,-0.70, -3.45, -1.74, 1.73, 1.89, 8.82, suppf,
2022-06-01,-2.33, -3.02, -0.24, 1.66, 1.85, 8.65, suppf,
2022-06-02,-2.77, -4.13, 4.82, 1.69, 1.89, 8.84, suppf,
2022-06-03,-0.84, -0.85, 0.27, 1.71, 1.88, 8.71, suppf,
2022-06-04,-1.79, -2.07, -4.81, 1.69, 1.89, 8.71, suppf,
2022-06-05,-2.51, -3.00, -11.54, 1.68, 1.86, 8.57, suppf,
2022-06-06,-2.22, -4.49, 0.81, 1.68, 1.86, 8.69, suppf,
2022-06-07,-1.00, -3.44, -4.09, 1.71, 1.94, 9.06, suppf,
2022-06-08,-3.10, -2.85, 1.12, 1.77, 1.99, 9.24, suppf,
2022-06-09,-1.75, -2.45, -6.67, 1.76, 1.95, 9.03, suppf,
2022-06-10,-0.02, -2.75, -7.88, 1.68, 1.87, 8.67, suppf,
2022-06-11,-1.32, -3.60, -10.11, 1.70, 1.87, 8.74, suppf,
2022-06-12,-4.19, -4.84, -9.76, 1.73, 1.88, 8.80, suppf,
2022-06-13,-1.27, -5.58, -3.54, 1.75, 1.94, 9.08, suppf,
2022-06-14,-0.56, -2.24, -9.05, 1.74, 1.94, 9.05, suppf,
2022-06-15,-2.36, -0.18, -3.06, 1.71, 1.93, 8.93, suppf,
2022-06-16,-2.67, -2.90, -9.87, 1.69, 1.85, 8.49, suppf,
2022-06-17,-2.99, -3.56, 1.44, 1.73, 1.89, 8.74, suppf,
2022-06-18,-3.51, -2.44, -4.77, 1.68, 1.88, 8.62, suppf,
2022-06-19,-1.43, -5.37, 9.19, 1.74, 1.86, 8.67, suppf,
2022-06-20,-2.30, -6.76, -1.61, 1.74, 1.92, 8.91, suppf,
2022-06-21,-1.37, -2.24, -2.45, 1.76, 1.91, 8.86, suppf,
2022-06-22,-0.03, -3.00, -4.20, 1.75, 1.90, 8.82, suppf,
2022-06-23,-3.26, -4.49, -5.59, 1.73, 1.88, 8.77, suppf,
2022-06-24,-2.62, -3.91, -14.34, 1.72, 1.89, 8.76, suppf,
2022-06-25,-0.12, -6.42, -5.15, 1.73, 1.88, 8.77, suppf,
2022-06-26,-2.17, -5.77, -9.78, 1.78, 1.92, 9.04, suppf,
2022-06-27,-2.20, -2.83, -8.97, 1.68, 1.88, 8.59, suppf,
2022-06-28,-3.28, -0.34, -3.36, 1.74, 1.91, 8.93, suppf,
2022-06-29,-1.89, -4.26, -15.35, 1.71, 1.90, 8.78, suppf,
2022-06-30,-2.46, -2.53, -5.33, 1.76, 1.92, 9.14, suppf,
2022-07-01,-2.11, -3.62, -12.64, 1.71, 1.89, 8.79, suppf,
2022-07-02,0.13, -2.56, -11.05, 1.71, 1.92, 8.90, suppf,
2022-07-03,-2.84, -2.09, -1.06, 1.71, 1.90, 8.80, suppf,
2022-07-04,-2.42, -2.66, -12.48, 1.79, 2.00, 9.39, suppf,
2022-07-05,-1.44, -0.20, -2.67, 1.87, 2.10, 9.89, suppf,
2022-07-06,-0.66, -6.39, 13.22, 1.79, 2.03, 9.52, suppf,
2022-07-07,-3.24, -4.07, -15.20, 1.79, 1.98, 9.35, suppf,
2022-07-08,-2.77, -0.53, -17.82, 1.78, 1.96, 9.22, suppf,
2022-07-09,-2.04, -0.96, -8.26, 1.74, 1.94, 9.03, suppf,
2022-07-10,-2.04, -2.69, -4.83, 1.74, 1.93, 8.96, suppf,
2022-07-11,-1.19, -1.51, -3.69, 1.69, 1.89, 8.69, suppf,
2022-07-12,-1.70, -2.27, -9.24, 1.70, 1.91, 8.87, suppf,
2022-07-13,-1.22, -5.40, -0.85, 1.70, 1.96, 8.88, suppf,
2022-07-14,-3.12, -1.91, -1.09, 1.76, 2.10, 9.44, suppf,
2022-07-15,-0.80, -3.61, -6.96, 1.81, 2.09, 9.65, suppf,
2022-07-16,-0.95, -4.13, -6.65, 1.71, 1.92, 8.87, suppf,
2022-07-17,-1.54, -2.69, -5.84, 1.69, 1.84, 8.52, suppf,
2022-07-18,-1.95, -2.14, -2.23, 1.75, 1.91, 8.94, suppf,
2022-07-19,-3.97, -6.04, -5.61, 1.77, 1.93, 9.04, suppf,
2022-07-20,-0.67, -2.26, -12.24, 1.69, 1.91, 8.75, suppf,
2022-07-21,-2.86, -4.87, -3.18, 1.74, 1.97, 9.13, suppf,
2022-07-22,-0.87, -4.12, -1.03, 1.74, 1.96, 9.00, suppf,
2022-07-23,-2.99, -3.03, -2.18, 1.75, 1.95, 9.05, suppf,
2022-07-24,1.85, 0.25, -8.47, 1.84, 2.07, 9.73, suppf,
2022-07-25,-0.53, -2.23, -26.31, 1.74, 1.89, 8.93, suppf,
2022-07-26,-0.47, -4.48, -13.44, 1.71, 1.91, 8.79, suppf,
2022-07-27,-1.60, -3.81, -3.17, 1.77, 1.95, 9.01, suppf,
2022-07-28,1.98, -2.92, -7.12, 1.79, 1.98, 9.28, suppf,
2022-07-29,-1.34, -2.85, -7.77, 1.76, 1.95, 8.97, suppf,
2022-07-30,-2.75, -3.42, -3.55, 1.77, 1.94, 9.03, suppf,
2022-07-31,-1.18, -2.52, -15.72, 1.71, 1.89, 8.69, suppf,
2022-08-01,-2.65, -1.90, -14.40, 1.69, 1.86, 8.57, suppf,
2022-08-02,-1.62, -0.15, -10.08, 1.79, 1.91, 9.19, suppf,
2022-08-03,-0.46, -3.83, -8.54, 1.74, 1.94, 9.00, suppf,
2022-08-04,-1.81, -3.94, -14.31, 1.75, 1.93, 9.12, suppf,
2022-08-05,-0.20, -5.05, -1.10, 1.65, 1.85, 8.51, suppf,
2022-08-06,-0.49, -3.52, 0.00, 1.78, 1.94, 9.08, suppf,
2022-08-07,-4.48, -2.05, -5.11, 1.79, 1.92, 9.20, suppf,
2022-08-08,-1.17, -1.20, -2.25, 1.73, 1.88, 8.89, suppf,
2022-08-09,-1.05, -4.47, 0.56, 1.70, 1.86, 8.69, suppf,
2022-08-10,-1.83, -3.49, 8.27, 1.75, 1.90, 8.95, suppf,
2022-08-11,-1.11, -2.62, -2.91, 1.70, 1.90, 8.81, suppf,
2022-08-12,-1.95, -1.91, -11.24, 1.68, 1.88, 8.70, suppf,
2022-08-13,0.33, -2.68, -14.51, 1.68, 1.89, 8.81, suppf,
2022-08-14,-0.57, -0.49, -17.33, 1.70, 1.87, 8.72, suppf,
2022-08-15,-0.80, -2.68, -2.79, 1.68, 1.87, 8.73, suppf,
2022-08-16,-0.47, -4.28, 0.66, 1.68, 1.87, 8.68, suppf,
2022-08-17,-1.00, -4.53, 4.15, 1.69, 1.89, 8.73, suppf,
2022-08-18,-1.53, -2.30, -10.34, 1.73, 1.94, 9.07, suppf,
2022-08-19,-0.42, -8.22, 3.19, 1.81, 2.02, 9.61, suppf,
2022-08-20,0.59, -3.60, -5.23, 1.72, 1.95, 8.95, suppf,
2022-08-21,0.59, -5.24, 1.87, 1.71, 1.91, 8.86, suppf,
2022-08-22,-0.49, -2.98, -5.97, 1.68, 1.89, 8.70, suppf,
2022-08-23,2.86, -1.43, -3.32, 1.79, 2.07, 9.51, suppf,
2022-08-24,-0.98, -3.36, -5.81, 1.80, 2.08, 9.56, suppf,
2022-08-25,-1.31, -4.14, 0.69, 1.75, 1.94, 9.08, suppf,
2022-08-26,-2.31, -7.59, -13.90, 1.79, 1.96, 9.24, suppf,
2022-08-27,0.34, -5.36, -14.93, 1.81, 2.02, 9.55, suppf,
2022-08-28,-0.15, -6.43, 1.01, 1.79, 1.98, 9.31, suppf,
2022-08-29,-1.54, -5.50, -6.90, 1.76, 1.95, 9.14, suppf,
2022-08-30,-0.69, -2.62, -13.26, 1.69, 1.90, 8.72, suppf,
2022-08-31,-1.98, -4.50, -1.29, 1.68, 1.94, 8.84, suppf,
2022-09-01,-0.78, -6.26, 6.09, 1.68, 1.95, 8.93, suppf,
2022-09-02,-0.53, -6.55, -8.56, 1.79, 2.03, 9.53, suppf,
2022-09-03,-2.49, -2.36, -6.20, 1.71, 1.95, 9.08, suppf,
2022-09-04,-2.55, -1.18, -18.13, 1.84, 2.12, 9.82, suppf,
2022-09-05,-2.96, -3.13, -3.66, 1.73, 1.98, 9.08, suppf,
2022-09-06,-5.14, -4.13, 10.16, 1.79, 2.06, 9.54, suppf,
2022-09-07,-0.84, -3.85, 0.25, 1.71, 1.99, 9.06, suppf,
2022-09-08,-2.65, -5.00, 0.67, 1.75, 1.96, 9.14, suppf,
2022-09-09,-2.70, -1.65, -9.18, 1.67, 1.88, 8.74, suppf,
2022-09-10,-2.43, -1.33, -13.63, 1.82, 2.05, 9.71, suppf,
2022-09-11,-4.24, -3.81, -15.58, 1.73, 1.90, 9.02, suppf,
2022-09-12,-3.23, -2.46, 3.30, 1.76, 1.97, 9.27, suppf,
2023-03-23,2.70, -4.55, 1.92, 5.27, 5.48, 22.11, suppl,
2023-03-24,-3.55, -4.95, 1.26, 1.84, 2.05, 9.29, suppf,
2023-03-25,-0.57, -1.73, 3.90, 1.73, 1.93, 8.70, suppf,
2023-03-26,-2.05, -2.55, 11.41, 1.74, 1.94, 8.78, final,
2023-03-27,-3.54, -2.65, 7.68, 1.71, 1.94, 8.67, final,
2023-03-28,-3.06, -4.55, 0.88, 1.73, 1.94, 8.78, final,
2023-03-29,-2.29, -2.67, -3.83, 1.75, 1.96, 8.66, final,
2023-03-30,-2.18, -2.26, -5.70, 1.71, 1.92, 8.48, final,
2023-03-31,-1.15, -4.09, 1.07, 1.69, 1.90, 8.41, final,
2023-04-01,-1.23, -2.96, 1.91, 1.70, 1.95, 8.67, final,
2023-04-02,-2.31, -4.90, -13.83, 1.74, 2.00, 8.84, final,
2023-04-03,-1.55, -3.69, -0.45, 1.78, 2.00, 8.87, final,
2023-04-04,-2.54, -5.10, 7.25, 1.79, 2.02, 9.04, final,
2023-04-05,1.41, -2.57, -14.54, 1.74, 1.97, 8.74, final,
2023-04-06,-0.61, -1.41, -10.32, 1.77, 1.94, 8.84, final,
2023-04-07,-2.45, -5.44, 1.26, 1.70, 1.94, 8.49, final,
2023-04-08,-6.32, -3.06, -9.49, 1.76, 1.97, 8.85, final,
2023-04-09,-2.27, -5.09, -14.16, 1.73, 1.94, 8.68, final,
2023-04-10,-1.77, -1.76, -12.56, 1.69, 1.91, 8.50, final,
2023-04-11,-0.75, -4.28, 1.22, 1.69, 1.91, 8.55, final,
2023-04-12,-0.86, -2.74, 5.96, 1.71, 1.96, 8.81, final,
2023-04-13,-2.30, -2.41, 5.16, 1.73, 1.97, 8.93, final,
2023-04-14,-1.35, -4.11, 1.21, 1.86, 2.02, 9.59, final,
2023-04-15,-2.42, -4.17, 3.10, 1.82, 2.01, 9.23, final,
2023-04-16,1.28, -4.34, 5.45, 1.81, 1.94, 9.11, final,
2023-04-17,-2.44, -3.92, 6.84, 1.67, 1.89, 8.79, final,
2023-04-18,-1.37, -5.39, 0.78, 1.73, 1.93, 8.82, final,
2023-04-19,-0.30, -3.13, -4.79, 1.68, 1.91, 8.76, final,
2023-04-20,-1.25, -1.77, -5.47, 1.75, 1.89, 9.07, final,
2023-04-21,-0.71, -1.69, 8.94, 1.78, 1.95, 9.24, final,
2023-04-22,0.21, -5.72, 7.86, 1.68, 1.87, 8.62, final,
2023-04-23,0.11, -0.90, 8.03, 1.74, 1.90, 8.96, final,
2023-04-24,-2.57, -2.08, -0.22, 1.70, 1.87, 8.75, final,
2023-04-25,-2.99, -4.09, -6.03, 1.67, 1.80, 8.39, final,
2023-04-26,-1.72, -2.02, -8.18, 1.69, 1.84, 8.68, final,
2023-04-27,-0.44, -3.87, -2.32, 1.77, 1.87, 9.00, final,
2023-04-28,-0.76, -4.31, 7.72, 1.73, 1.86, 8.83, final,
2023-04-29,-2.04, -3.74, -7.34, 1.68, 1.85, 8.63, final,
2023-04-30,-2.19, -4.69, 5.42, 1.72, 1.86, 8.76, final,
2023-05-01,-1.81, -3.08, 1.33, 1.69, 1.83, 8.39, final,
2023-05-02,-1.68, -2.03, -5.78, 1.71, 1.84, 8.67, final,
2023-05-03,-1.57, -2.53, 6.53, 1.73, 1.84, 8.74, final,
2023-05-04,-2.94, -2.48, -6.86, 1.72, 1.87, 8.76, final,
2023-05-05,1.28, -2.93, 4.27, 1.80, 1.96, 9.34, final,
2023-05-06,-3.40, -5.81, 11.79, 1.73, 1.86, 8.63, final,
2023-05-07,-1.32, -3.47, -0.06, 1.71, 1.83, 8.60, final,
2023-05-08,-2.16, -2.96, 1.09, 1.73, 1.85, 8.67, final,
2023-05-09,-1.80, -3.52, -7.53, 1.69, 1.83, 8.47, final,
2023-05-10,-2.16, -2.38, -4.80, 1.67, 1.82, 8.36, final,
2023-05-11,-1.83, -3.32, 3.23, 1.70, 1.84, 8.53, final,
2023-05-12,-2.79, -1.12, -19.17, 1.79, 1.92, 8.96, final,
2023-05-13,-0.68, -1.86, -5.29, 1.71, 1.87, 8.71, final,
2023-05-14,-3.78, -4.82, 4.43, 1.74, 1.86, 8.71, final,
2023-05-15,-2.78, -3.84, -9.59, 1.70, 1.85, 8.70, final,
2023-05-16,-2.74, -1.29, -0.45, 1.71, 1.82, 8.37, final,
2023-05-17,-1.85, -3.79, -2.44, 1.72, 1.82, 8.45, final,
2023-05-18,-2.05, -2.94, -2.75, 1.74, 1.84, 8.41, final,
2023-05-19,-2.01, 0.61, -12.36, 1.81, 1.95, 8.90, final,
2023-05-20,-3.92, -0.47, 1.70, 1.88, 1.87, 8.70, final,
2023-05-21,-2.82, -1.42, -8.45, 1.76, 1.88, 8.64, final,
2023-05-22,-1.57, -1.82, 4.52, 1.80, 1.90, 8.74, final,
2023-05-23,-3.88, -4.42, -0.17, 1.76, 1.87, 8.69, final,
2023-05-24,-3.88, -2.56, -1.84, 1.75, 1.91, 8.79, final,
2023-05-25,-3.56, -2.63, 2.88, 1.73, 1.87, 8.65, final,
2023-05-26,-2.02, -1.82, -17.45, 1.72, 1.83, 8.46, final,
2023-05-27,-2.76, -2.72, 3.93, 1.74, 1.87, 8.61, final,
2023-05-28,-2.44, -3.02, 15.95, 1.77, 1.90, 8.78, final,
2023-05-29,-1.67, -2.16, -0.63, 1.74, 1.93, 8.74, final,
2023-05-30,-2.45, -4.46, 3.93, 1.71, 1.85, 8.51, final,
2023-05-31,-4.30, -4.41, 1.77, 1.70, 1.84, 8.49, final,
2023-06-01,-2.33, -4.53, -8.91, 1.78, 1.94, 8.88, final,
2023-06-02,-3.07, -3.19, -0.39, 1.74, 1.95, 8.82, final,
2023-06-03,-3.79, -4.82, 3.95, 1.73, 1.88, 8.58, final,
2023-06-04,-1.99, -6.49, -7.86, 1.68, 1.88, 8.45, final,
2023-06-05,-2.08, -4.56, -1.40, 1.68, 1.88, 8.37, final,
2023-06-06,-2.26, -5.72, 5.80, 1.70, 1.86, 8.44, final,
2023-06-07,-2.78, -5.31, -10.37, 1.69, 1.87, 8.55, final,
2023-06-08,-1.23, -6.43, 3.81, 1.70, 1.89, 8.56, final,
2023-06-09,-1.14, -4.10, -0.47, 1.70, 1.89, 8.51, final,
2023-06-10,-1.24, -2.50, -6.78, 1.68, 1.86, 8.48, final,
2023-06-11,-2.57, -3.69, 3.15, 1.75, 1.92, 8.86, rapid,
2023-06-12,-4.04, -3.51, -1.15, 1.69, 1.89, 8.59, rapid,
2023-06-13,-3.16, -6.55, 21.53, 1.78, 1.94, 8.95, rapid,
2023-06-14,-2.56, -3.87, 5.13, 1.69, 1.90, 8.56, rapid,
2023-06-15,-2.14, -6.14, 1.25, 1.68, 1.89, 8.48, rapid,
2023-06-16,-2.61, -5.95, -6.18, 1.67, 1.86, 8.39, rapid,
2023-06-17,-4.62, -4.68, -0.87, 1.76, 2.01, 9.03, rapid,
2023-06-18,-3.40, -7.81, 5.30, 1.71, 1.89, 8.65, rapid,
2023-06-19,-3.24, -5.51, -0.19, 1.75, 1.91, 8.77, rapid,
2023-06-20,-3.65, -6.20, -7.18, 1.79, 1.94, 9.11, rapid,
2023-06-21,-4.28, -7.15, -15.15, 1.78, 1.92, 9.09, rapid,
2023-06-22,-2.41, -5.94, 1.44, 1.75, 1.93, 8.96, rapid,
2023-06-23,-3.77, -3.37, -3.24, 1.73, 1.85, 8.70, rapid,
2023-06-24,-2.97, -6.42, 0.14, 1.71, 1.88, 8.57, rapid,
2023-06-25,-2.06, -6.44, 3.10, 1.73, 1.88, 8.64, rapid,
2023-06-26,-5.01, -4.42, -0.01, 1.73, 1.94, 8.69, rapid,
